Tracking 31027 objects as of 19-Jul-2025
HD Live streaming from Space Station
objects crossing your sky now

STARLINK-32436

Track STARLINK-32436 now!
10-day predictions


NORAD ID: 61215
Int'l Code: 2024-171R
Perigee: 481.8 km
Apogee: 483.0 km
Inclination: 53.2 °
Period: 94.1 minutes
Semi major axis: 6853 km
RCS: Unknown
Launch date: September 20, 2024
Source: United States (US)
Launch site: AIR FORCE WESTERN TEST RANGE (AFWTR)
Your satellite tracking list
DMSP 5D-2 F13 DEB
Track 1 satellite(s)




NASA's NSSDC Master Catalog

Two Line Element Set (TLE):
1 61215U 24171R   25199.73497611 -.00001377  00000-0 -34406-4 0  9995
2 61215  53.1610 328.8085 0000835 115.7757 244.3330 15.30185218 46559
Source of the keplerian elements: AFSPC